Tracking 29511 objects as of 17-Sep-2024
HD Live streaming from Space Station
objects crossing your sky now

THOR ABLESTAR DEB

Track THOR ABLESTAR DEB now!
10-day predictions


NORAD ID: 559
Int'l Code: 1961-015GR
Perigee: 660.4 km
Apogee: 755.5 km
Inclination: 66.6 °
Period: 98.8 minutes
Semi major axis: 7078 km
RCS: 0.0375 m2 (small)
Launch date: June 29, 1961
Source: United States (US)
Launch site: AIR FORCE EASTERN TEST RANGE (AFETR)

Note: This is SATELLITE DEBRIS
Your satellite tracking list
Your tracking list is empty




NASA's NSSDC Master Catalog

Two Line Element Set (TLE):
1 00559U 61015GR  24260.45397823  .00018450  00000-0  39274-2 0  9992
2 00559  66.6027 271.6663 0067187 270.9220  88.4194 14.57634025256093
Source of the keplerian elements: AFSPC